Flag for Colombia Weather past 2 weeks in Manizales, Colombia

Now
70 °F

Passing clouds.


Feels Like: 70 °F
Forecast: 57 / 73 °F
Wind: 9 mph from East

Location: Pereira / Matecana

Current Time: May 23, 2015 at 10:44:11 PM

Latest Report: May 23, 2015 at 10:00 PM


Visibility: N/A

Pressure: 30.07 "Hg

Humidity: 83%

Dew point: 64 °F

Location of ManizalesLocation

Historic Weather in Manizales — Graph

°F

Manizales temperature yesterday

Maximum temperature yesterday: 81 °F (at 1:00 PM)
Minimum temperature yesterday: 66 °F (at 12:00 AM)
Average temperature yesterday: 72 °F

Past Weeks' High & Low Weather Summary

 TemperatureHumidityPressure
High88 °F (May 12, 3:00 PM)100% (May 21, 6:00 AM)30.16 "Hg (May 21, 6:00 AM)
Low64 °F (May 16, 6:00 AM)40% (May 12, 1:00 PM)29.71 "Hg (May 12, 5:00 PM)
Average74 °F75%30.03 "Hg
* Reported May 8 9:00 PM — May 23 9:00 PM, Manizales, Weather by CustomWeather, © 2015

Note: Actual official high and low records may vary slightly from our data, if they occured in-between our weather recording intervals... More about our weather records

Advertising

Manizales weather history for previous 24 hours

 ConditionsComfort  
Time TempWeatherWind HumidityBarometerVisibility
9:00 PM
Sat, May 23
70 °FPassing clouds.9 mph94%30.06 "Hg5 mi
8:00 PM73 °FThunderstorms. Passing clouds.2 mph78%30.04 "Hg5 mi
7:00 PM75 °FThunderstorms. Passing clouds.2 mph65%30.00 "HgN/A
6:00 PM79 °FScattered clouds.2 mph61%29.98 "HgN/A
5:00 PM81 °FScattered clouds.5 mph58%29.96 "HgN/A
4:00 PM81 °FPassing clouds.3 mph54%29.96 "HgN/A
3:00 PM81 °FPassing clouds.9 mph54%29.98 "HgN/A
2:00 PM81 °FScattered clouds.8 mph62%30.02 "HgN/A
1:00 PM81 °FScattered clouds.3 mph62%30.06 "HgN/A
12:00 PM81 °FScattered clouds.6 mph66%30.09 "HgN/A
11:00 AM79 °FScattered clouds.7 mph70%30.10 "HgN/A
10:00 AM77 °FScattered clouds.6 mph69%30.13 "HgN/A
9:00 AM73 °FScattered clouds.3 mph69%30.13 "HgN/A
8:00 AM70 °FScattered clouds.6 mph78%30.13 "HgN/A
7:00 AM64 °FScattered clouds.7 mph83%30.12 "HgN/A
6:00 AM64 °FScattered clouds.9 mph83%30.09 "HgN/A
5:00 AM64 °FPassing clouds.7 mph83%30.06 "HgN/A
1:00 AM68 °FPassing clouds.9 mph78%30.11 "HgN/A
12:00 AM68 °FPassing clouds.12 mph78%30.10 "HgN/A
11:00 PM
Fri, May 22
68 °FPassing clouds.14 mph78%30.11 "HgN/A
10:00 PM68 °FPassing clouds.12 mph78%30.09 "HgN/A
Weather by CustomWeather, © 2015

See weather overviewHow to use our weather pages